Flag for Canada Weather past 2 weeks in New Westminster, British Columbia, Canada

Now
54 °F

Cool.


Feels Like: 52 °F
Forecast: 40 / 51 °F
Wind: 7 mph from West

Location: P. Meadows Coastal Station

Current Time: Mar 31, 2015 at 5:35:55 PM

Latest Report: Mar 31, 2015 at 5:00 PM


Visibility: N/A

Pressure: 30.06 "Hg

Humidity: 46%

Dew point: 34 °F

Location of New WestminsterLocation

Historic Weather in New Westminster — Graph

°F

New Westminster temperature yesterday

Maximum temperature yesterday: 62 °F (at 4:00 PM)
Minimum temperature yesterday: 46 °F (at 1:00 AM)
Average temperature yesterday: 52 °F

Past Weeks' High & Low Weather Summary

 TemperatureHumidityPressure
High64 °F (Mar 27, 3:00 PM)100% (Mar 19, 7:00 AM)30.31 "Hg (Mar 19, 7:00 AM)
Low38 °F (Mar 17, 2:00 AM)30% (Mar 16, 5:00 PM)29.74 "Hg (Mar 31, 1:00 AM)
Average49 °F85%30.07 "Hg
* Reported Mar 16 4:00 PM — Mar 31 4:00 PM, New Westminster, Weather by CustomWeather, © 2015

Note: Actual official high and low records may vary slightly from our data, if they occured in-between our weather recording intervals... More about our weather records

Advertising

New Westminster weather history for previous 24 hours

 ConditionsComfort  
Time TempWeatherWind HumidityBarometerVisibility
4:00 PM
Tue, Mar 31
56 °FRefreshingly cool.7 mph43%30.06 "HgN/A
3:00 PM55 °FRefreshingly cool.10 mph41%30.06 "HgN/A
2:00 PM55 °FRefreshingly cool.9 mph46%30.05 "HgN/A
1:00 PM53 °FCool.8 mph52%30.04 "HgN/A
12:00 PM51 °FCool.7 mph70%30.02 "HgN/A
11:00 AM49 °FCool.2 mph75%30.01 "HgN/A
10:00 AM51 °FCool.7 mph72%29.98 "HgN/A
9:00 AM48 °FCool.5 mph81%29.96 "HgN/A
8:00 AM46 °FCool.3 mph86%29.95 "HgN/A
7:00 AM46 °FCool.5 mph82%29.93 "HgN/A
6:00 AM46 °FCool.6 mph80%29.90 "HgN/A
5:00 AM47 °FCool.7 mph81%29.87 "HgN/A
4:00 AM47 °FCool.6 mph82%29.83 "HgN/A
3:00 AM47 °FCool.6 mph90%29.80 "HgN/A
2:00 AM49 °FCool.14 mph89%29.76 "HgN/A
1:00 AM57 °FCool.12 mph64%29.74 "HgN/A
12:00 AM51 °FCool.1 mph94%29.75 "HgN/A
11:00 PM
Mon, Mar 30
52 °FCool.1 mph92%29.77 "HgN/A
10:00 PM53 °FCool.2 mph92%29.79 "HgN/A
9:00 PM54 °FCool.5 mph84%29.81 "HgN/A
8:00 PM55 °FCool.6 mph87%29.82 "HgN/A
7:00 PM57 °FCool.8 mph82%29.83 "HgN/A
6:00 PM58 °FCool.8 mph77%29.85 "HgN/A
5:00 PM61 °FCool.6 mph69%29.88 "HgN/A
Weather by CustomWeather, © 2015

See weather overviewHow to use our weather pages